Ouarzazate, Morocco

9:12 PM WET on February 14, 2016 (GMT +0000)
Ouarzazate

Weather History for GMMZ - April, 2013

Change the Weather History Date:

Sunday, April 28, 2013

  Actual Average Record
Temperature  
Mean Temperature 64 °F -  
Max Temperature 75 °F 84 °F - ()
Min Temperature 51 °F 57 °F - ()
Degree Days  
Heating Degree Days 1    
Growing Degree Days 14 (Base 50)    
Moisture  
Dew Point 20 °F    
Average Humidity 19    
Maximum Humidity 41    
Minimum Humidity 4    
Precipitation  
Precipitation 0.00 in 0.01 in - ()
Sea Level Pressure  
Sea Level Pressure 29.70 in    
Wind  
Wind Speed 18 mph ()    
Max Wind Speed 37 mph    
Max Gust Speed 46 mph    
Visibility 7.4 miles    
Events      
T = Trace of Precipitation, MM = Missing Value Source: Averaged Metar Reports

Daily Weather History Graph

Daily Weather History Graph

Search for Another Location

Airport or City:

Trip Planner

Search our weather history database for the weather conditions in past years. The results will help you decide how hot, cold, wet, or windy it might be!

Date:

Astronomy

Apr. 28, 2013 Rise Set
Actual Time 6:46 AM WEST 8:04 PM WEST
Civil Twilight 6:20 AM WEST 8:29 PM WEST
Nautical Twilight 5:50 AM WEST 9:00 PM WEST
Astronomical Twilight 5:18 AM WEST 9:31 PM WEST
Moon 11:14 PM WEST (4/28) 8:55 AM WEST (4/28)
Length of Visible Light 14h 09m
Length of Day
13h 18m
Waning Gibbous, 90% of the Moon is Illuminated
Apr 28
Waning Gibbous
May 2
Last Quarter
May 10
New
May 18
First Quarter
May 25
Full

Hourly Weather History & Observations

Time (WEST) Temp. Dew Point Humidity Pressure Visibility Wind Dir Wind Speed Gust Speed Precip Events Conditions
12:00 AM 62 °F 25 °F 14%  in 12 mi West 13.8 mph - -  
12:00 AM 62.6 °F 23.0 °F 22% 29.74 in - West 13.8 mph - N/A   Clear
1:00 AM 60.8 °F 23.0 °F 23% 29.74 in - West 18.4 mph - N/A   Clear
3:00 AM 60.8 °F 19.4 °F 20% 29.68 in - West 13.8 mph - N/A   Clear
4:00 AM 62 °F 21 °F 11%  in 12 mi West 17.3 mph - -  
4:00 AM 59.0 °F 19.4 °F 22% 29.65 in - WSW 13.8 mph - N/A   Clear
5:00 AM 59.0 °F 19.4 °F 22% 29.68 in - West 16.1 mph - N/A   Clear
6:00 AM 59.0 °F 21.2 °F 23% 29.65 in - West 17.3 mph - N/A   Clear
7:00 AM 57 °F 25 °F 18%  in 12 mi West 16.1 mph - -  
7:00 AM 57.2 °F 24.8 °F 29% 29.68 in - WNW 17.3 mph - N/A   Clear
8:00 AM 59.0 °F 28.4 °F 31% 29.68 in - NNW 4.6 mph - N/A   Clear
9:00 AM 64.4 °F 21.2 °F 19% 29.68 in - North - - N/A   Partly Cloudy
10:00 AM 66 °F 23 °F 10%  in 12 mi WNW 19.6 mph - -   Scattered Clouds
10:00 AM 66.2 °F 23.0 °F 19% 29.68 in 6.2 mi WNW 20.7 mph - N/A   Partly Cloudy
11:00 AM 68.0 °F 23.0 °F 18% 29.68 in 6.2 mi WNW 24.2 mph - N/A   Partly Cloudy
12:00 PM 69.8 °F 17.6 °F 14% 29.68 in 6.2 mi NW 23.0 mph - N/A   Partly Cloudy
1:00 PM 73 °F 11 °F 4%  in 12 mi NW 19.6 mph - -   Scattered Clouds
1:00 PM 73.4 °F 8.6 °F 8% 29.65 in 6.2 mi NW 19.6 mph - N/A   Partly Cloudy
2:00 PM 73.4 °F 5.0 °F 7% 29.62 in 6.2 mi NW 21.9 mph - N/A   Partly Cloudy
3:00 PM 73.4 °F 12.2 °F 10% 29.62 in 6.2 mi WNW 24.2 mph 35.7 mph N/A   Partly Cloudy
4:00 PM 71 °F 18 °F 6%  in 6 mi West 32.2 mph - -   Scattered Clouds
4:00 PM 71.6 °F 17.6 °F 13% 29.62 in 6.2 mi West 32.2 mph - N/A   Partly Cloudy
5:00 PM 69.8 °F 19.4 °F 15% 29.59 in 3.1 mi WNW 34.5 mph 46.0 mph N/A   Partly Cloudy
6:00 PM 66.2 °F 15.8 °F 14% 29.62 in 6.2 mi WNW 36.8 mph - N/A   Partly Cloudy
7:00 PM 63 °F 21 °F 11%  in 6 mi NW 25.3 mph - -   Scattered Clouds
7:00 PM 62.6 °F 23.0 °F 22% 30.51 in 6.2 mi NW 25.3 mph - N/A   Partly Cloudy
8:00 PM 59.0 °F 21.2 °F 23% 29.65 in 6.2 mi NW 27.6 mph - N/A   Partly Cloudy
9:00 PM 57.2 °F 23.0 °F 27% 29.65 in 6.2 mi NW 31.1 mph - N/A   Partly Cloudy
10:00 PM 56 °F 23 °F 17%  in 6 mi WNW 28.8 mph - -   Scattered Clouds
10:00 PM 55.4 °F 23.0 °F 29% 29.68 in 6.2 mi WNW 28.8 mph 40.3 mph N/A   Partly Cloudy
11:00 PM 53.6 °F 28.4 °F 38% 29.68 in 6.2 mi WNW 27.6 mph - N/A   Partly Cloudy
12:00 AM 51.8 °F 28.4 °F 41% 29.68 in - West 23.0 mph - N/A   Clear